| time (UTC) | temp C | wind direction | speed KPH | gust KPH | rain 1hr cm | rain 24hr cm | rain mn cm | humidity % | barometer mb |
| 20260504192012 | 26 | 129 | 1.6 | 3.2 | 0.00 | 0.00 | 0.00 | 43 | 1013.3 |
| 20260504191510 | 26 | 96 | 3.2 | 9.7 | 0.00 | 0.00 | 0.00 | 45 | 1013.0 |
| 20260504191005 | 26 | 164 | 4.8 | 4.8 | 0.00 | 0.00 | 0.00 | 43 | 1013.3 |
| 20260504190501 | 27 | 156 | 1.6 | 3.2 | 0.00 | 0.00 | 0.00 | 45 | 1013.3 |
| 20260504185958 | 27 | 196 | 3.2 | 4.8 | 0.00 | 0.00 | 0.00 | 43 | 1013.5 |
| 20260504185455 | 26 | 159 | 3.2 | 4.8 | 0.00 | 0.00 | 0.00 | 46 | 1013.7 |
| 20260504184951 | 26 | 151 | 1.6 | 3.2 | 0.00 | 0.00 | 0.00 | 43 | 1013.7 |
| 20260504184447 | 26 | 193 | 4.8 | 4.8 | 0.00 | 0.00 | 0.00 | 44 | 1013.8 |
| 20260504183943 | 26 | 175 | 3.2 | 3.2 | 0.00 | 0.00 | 0.00 | 46 | 1013.7 |
| 20260504183440 | 26 | 157 | 1.6 | 3.2 | 0.00 | 0.00 | 0.00 | 45 | 1013.7 |
| 20260504182938 | 26 | 148 | 0.0 | 1.6 | 0.00 | 0.00 | 0.00 | 49 | 1013.9 |
| 20260504182434 | 26 | 159 | 1.6 | 1.6 | 0.00 | 0.00 | 0.00 | 45 | 1013.9 |
| 20260504181932 | 26 | 119 | 1.6 | 1.6 | 0.00 | 0.00 | 0.00 | 44 | 1014.1 |
| 20260504181429 | 27 | 129 | 1.6 | 1.6 | 0.00 | 0.00 | 0.00 | 44 | 1014.1 |
| 20260504180928 | 26 | 139 | 1.6 | 1.6 | 0.00 | 0.00 | 0.00 | 47 | 1014.2 |
| 20260504180426 | 26 | 133 | 1.6 | 1.6 | 0.00 | 0.00 | 0.00 | 44 | 1014.1 |
| 20260504175924 | 26 | 160 | 3.2 | 3.2 | 0.00 | 0.00 | 0.00 | 44 | 1014.4 |
| 20260504175421 | 26 | 155 | 1.6 | 1.6 | 0.00 | 0.00 | 0.00 | 45 | 1014.2 |
| 20260504174918 | 26 | 120 | 1.6 | 3.2 | 0.00 | 0.00 | 0.00 | 47 | 1014.2 |
| 20260504174416 | 26 | 146 | 1.6 | 1.6 | 0.00 | 0.00 | 0.00 | 45 | 1014.5 |
| 20260504173913 | 26 | 57 | 4.8 | 6.4 | 0.00 | 0.00 | 0.00 | 46 | 1014.5 |
| 20260504173409 | 25 | 58 | 1.6 | 3.2 | 0.00 | 0.00 | 0.00 | 45 | 1014.5 |
| 20260504172907 | 25 | 206 | 6.4 | 6.4 | 0.00 | 0.00 | 0.00 | 45 | 1014.6 |
| 20260504172403 | 25 | 146 | 0.0 | 1.6 | 0.00 | 0.00 | 0.00 | 48 | 1014.6 |
| 20260504171859 | 25 | 199 | 4.8 | 11.3 | 0.00 | 0.00 | 0.00 | 44 | 1014.6 |
| 20260504171356 | 25 | 112 | 0.0 | 1.6 | 0.00 | 0.00 | 0.00 | 48 | 1014.6 |
| 20260504170853 | 25 | 185 | 3.2 | 3.2 | 0.00 | 0.00 | 0.00 | 48 | 1014.8 |
| 20260504170350 | 25 | 133 | 3.2 | 3.2 | 0.00 | 0.00 | 0.00 | 48 | 1014.8 |
| 20260504160308 | 23 | 154 | 3.2 | 3.2 | 0.00 | 0.00 | 0.00 | 50 | 1015.9 |
| 20260504150733 | 22 | 110 | 0.0 | 1.6 | 0.00 | 0.00 | 0.00 | 51 | 1015.8 |
| 20260504150230 | 22 | 196 | 1.6 | 3.2 | 0.00 | 0.00 | 0.00 | 50 | 1016.0 |
| 20260504141159 | 19 | 134 | 0.0 | 0.0 | 0.00 | 0.00 | 0.00 | 56 | 1016.2 |
| 20260504140656 | 18 | 138 | 0.0 | 1.6 | 0.00 | 0.00 | 0.00 | 59 | 1016.3 |
| 20260504140152 | 18 | 152 | 1.6 | 1.6 | 0.00 | 0.00 | 0.00 | 60 | 1016.2 |
| 20260504130620 | 15 | 141 | 0.0 | 0.0 | 0.00 | 0.00 | 0.00 | 68 | 1016.6 |
| 20260504130117 | 15 | 151 | 1.6 | 1.6 | 0.00 | 0.00 | 0.00 | 69 | 1016.5 |
| 20260504110508 | 10 | 130 | 0.0 | 0.0 | 0.00 | 0.00 | 0.00 | 77 | 1015.5 |
| 20260504100430 | 10 | 137 | 0.0 | 0.0 | 0.00 | 0.00 | 0.00 | 80 | 1015.3 |
| 20260504081823 | 8 | 141 | 0.0 | 0.0 | 0.00 | 0.00 | 0.00 | 87 | 1015.3 |
| 20260504081320 | 8 | 141 | 0.0 | 0.0 | 0.00 | 0.00 | 0.00 | 87 | 1015.3 |
| 20260504080816 | 8 | 141 | 0.0 | 0.0 | 0.00 | 0.00 | 0.00 | 86 | 1015.4 |
| 20260504080313 | 8 | 141 | 0.0 | 0.0 | 0.00 | 0.00 | 0.00 | 86 | 1015.4 |
| 20260504070240 | 8 | 141 | 0.0 | 0.0 | 0.00 | 0.00 | 0.00 | 86 | 1015.9 |
| 20260504060201 | 8 | 139 | 0.0 | 0.0 | 0.00 | 0.00 | 0.00 | 87 | 1016.6 |
| 20260504050629 | 10 | 140 | 0.0 | 0.0 | 0.00 | 0.00 | 0.00 | 84 | 1016.8 |
| 20260504050126 | 10 | 138 | 0.0 | 0.0 | 0.00 | 0.00 | 0.00 | 84 | 1016.8 |
| 20260504045624 | 10 | 139 | 0.0 | 0.0 | 0.00 | 0.00 | 0.00 | 84 | 1017.0 |
| 20260504045123 | 10 | 136 | 0.0 | 0.0 | 0.00 | 0.00 | 0.00 | 85 | 1016.9 |
| 20260504044622 | 10 | 140 | 0.0 | 0.0 | 0.00 | 0.00 | 0.00 | 85 | 1016.9 |
| 20260504044118 | 10 | 140 | 0.0 | 0.0 | 0.00 | 0.00 | 0.00 | 85 | 1016.8 |
| 20260504043615 | 10 | 140 | 0.0 | 0.0 | 0.00 | 0.00 | 0.00 | 85 | 1016.9 |
| 20260504043113 | 10 | 140 | 0.0 | 0.0 | 0.00 | 0.00 | 0.00 | 84 | 1016.9 |
| 20260504042610 | 10 | 140 | 0.0 | 0.0 | 0.00 | 0.00 | 0.00 | 83 | 1016.9 |
| 20260504042107 | 10 | 141 | 0.0 | 0.0 | 0.00 | 0.00 | 0.00 | 84 | 1016.8 |
| 20260504041602 | 10 | 141 | 0.0 | 0.0 | 0.00 | 0.00 | 0.00 | 84 | 1016.9 |
| 20260504041059 | 10 | 140 | 0.0 | 0.0 | 0.00 | 0.00 | 0.00 | 83 | 1016.8 |
| 20260504040556 | 10 | 141 | 0.0 | 0.0 | 0.00 | 0.00 | 0.00 | 84 | 1016.9 |
| 20260504040053 | 10 | 140 | 0.0 | 0.0 | 0.00 | 0.00 | 0.00 | 84 | 1017.0 |
| 20260504035549 | 10 | 140 | 0.0 | 0.0 | 0.00 | 0.00 | 0.00 | 84 | 1016.9 |
| 20260504035046 | 10 | 141 | 0.0 | 0.0 | 0.00 | 0.00 | 0.00 | 85 | 1017.1 |
| 20260504034544 | 10 | 139 | 0.0 | 0.0 | 0.00 | 0.00 | 0.00 | 85 | 1017.0 |
| 20260504034040 | 10 | 137 | 0.0 | 0.0 | 0.00 | 0.00 | 0.00 | 84 | 1017.3 |
| 20260504033538 | 10 | 135 | 0.0 | 0.0 | 0.00 | 0.00 | 0.00 | 83 | 1017.3 |
| 20260504033035 | 10 | 134 | 0.0 | 0.0 | 0.00 | 0.00 | 0.00 | 82 | 1017.3 |
| 20260504032532 | 10 | 134 | 0.0 | 0.0 | 0.00 | 0.00 | 0.00 | 83 | 1017.3 |
| 20260504032029 | 10 | 137 | 0.0 | 0.0 | 0.00 | 0.00 | 0.00 | 80 | 1017.2 |
| 20260504031526 | 10 | 135 | 0.0 | 0.0 | 0.00 | 0.00 | 0.00 | 78 | 1017.4 |
| 20260504031022 | 10 | 135 | 0.0 | 0.0 | 0.00 | 0.00 | 0.00 | 78 | 1017.5 |
| 20260504030520 | 10 | 135 | 0.0 | 0.0 | 0.00 | 0.00 | 0.00 | 79 | 1017.6 |
| 20260504030016 | 10 | 135 | 0.0 | 0.0 | 0.00 | 0.00 | 0.00 | 77 | 1017.5 |
| 20260504025513 | 10 | 131 | 0.0 | 0.0 | 0.00 | 0.00 | 0.00 | 77 | 1017.5 |
| 20260504025010 | 10 | 129 | 0.0 | 0.0 | 0.00 | 0.00 | 0.00 | 79 | 1017.9 |
| 20260504024507 | 11 | 137 | 0.0 | 0.0 | 0.00 | 0.00 | 0.00 | 78 | 1017.6 |
| 20260504024004 | 11 | 137 | 0.0 | 0.0 | 0.00 | 0.00 | 0.00 | 77 | 1017.6 |
| 20260504023500 | 11 | 134 | 0.0 | 0.0 | 0.00 | 0.00 | 0.00 | 74 | 1017.7 |
| 20260504022956 | 11 | 132 | 0.0 | 0.0 | 0.00 | 0.00 | 0.00 | 76 | 1017.5 |
| 20260504022452 | 11 | 135 | 0.0 | 0.0 | 0.00 | 0.00 | 0.00 | 77 | 1017.6 |
| 20260504021949 | 11 | 135 | 0.0 | 0.0 | 0.00 | 0.00 | 0.00 | 75 | 1017.4 |
| 20260504021446 | 11 | 132 | 0.0 | 0.0 | 0.00 | 0.00 | 0.00 | 73 | 1017.4 |
| 20260504020944 | 11 | 133 | 0.0 | 0.0 | 0.00 | 0.00 | 0.00 | 74 | 1017.3 |
| 20260504020440 | 11 | 129 | 0.0 | 0.0 | 0.00 | 0.00 | 0.00 | 74 | 1017.2 |
| 20260504015937 | 11 | 136 | 0.0 | 0.0 | 0.00 | 0.00 | 0.00 | 74 | 1016.8 |
| 20260504015433 | 11 | 136 | 0.0 | 0.0 | 0.00 | 0.00 | 0.00 | 72 | 1017.0 |
| 20260504014929 | 11 | 136 | 0.0 | 0.0 | 0.00 | 0.00 | 0.00 | 72 | 1016.9 |
| 20260504014425 | 11 | 133 | 0.0 | 0.0 | 0.00 | 0.00 | 0.00 | 72 | 1016.7 |
| 20260504013922 | 11 | 133 | 0.0 | 0.0 | 0.00 | 0.00 | 0.00 | 73 | 1016.7 |
| 20260504013421 | 11 | 134 | 0.0 | 0.0 | 0.00 | 0.00 | 0.00 | 75 | 1016.7 |
| 20260504012916 | 11 | 134 | 0.0 | 0.0 | 0.00 | 0.00 | 0.00 | 73 | 1016.3 |
| 20260504012414 | 11 | 134 | 0.0 | 0.0 | 0.00 | 0.00 | 0.00 | 73 | 1016.5 |
| 20260504011912 | 12 | 134 | 0.0 | 0.0 | 0.00 | 0.00 | 0.00 | 71 | 1016.6 |
| 20260504011408 | 12 | 134 | 0.0 | 0.0 | 0.00 | 0.00 | 0.00 | 70 | 1016.3 |
| 20260504010904 | 12 | 133 | 0.0 | 0.0 | 0.00 | 0.00 | 0.00 | 71 | 1016.5 |
| 20260504010400 | 12 | 130 | 0.0 | 0.0 | 0.00 | 0.00 | 0.00 | 72 | 1016.2 |
| 20260504005856 | 12 | 133 | 0.0 | 0.0 | 0.00 | 0.00 | 0.00 | 71 | 1016.3 |
| 20260504005353 | 12 | 133 | 0.0 | 0.0 | 0.00 | 0.00 | 0.00 | 71 | 1016.5 |
| 20260504004851 | 13 | 138 | 0.0 | 0.0 | 0.00 | 0.00 | 0.00 | 69 | 1016.5 |
| 20260504004348 | 13 | 138 | 0.0 | 0.0 | 0.00 | 0.00 | 0.00 | 68 | 1016.3 |
| 20260504003845 | 14 | 138 | 0.0 | 0.0 | 0.00 | 0.00 | 0.00 | 69 | 1016.2 |
| 20260504003342 | 14 | 138 | 0.0 | 0.0 | 0.00 | 0.00 | 0.00 | 68 | 1016.3 |
| 20260504002838 | 15 | 139 | 0.0 | 0.0 | 0.00 | 0.00 | 0.00 | 68 | 1016.5 |
| 20260504002335 | 15 | 139 | 0.0 | 0.0 | 0.00 | 0.00 | 0.00 | 63 | 1016.5 |
| 20260504001833 | 16 | 139 | 0.0 | 0.0 | 0.00 | 0.00 | 0.00 | 60 | 1016.5 |
| 20260504001330 | 16 | 134 | 0.0 | 0.0 | 0.00 | 0.00 | 0.00 | 60 | 1016.5 |
| 20260504000827 | 16 | 138 | 0.0 | 0.0 | 0.00 | 0.00 | 0.00 | 58 | 1016.7 |
| 20260504000324 | 17 | 137 | 0.0 | 0.0 | 0.00 | 0.00 | 0.00 | 54 | 1016.6 |
| 20260503235821 | 17 | 136 | 0.0 | 0.0 | 0.00 | 0.00 | 0.00 | 52 | 1016.7 |
| 20260503235319 | 17 | 140 | 0.0 | 0.0 | 0.00 | 0.00 | 0.00 | 50 | 1016.8 |
| 20260503234816 | 18 | 139 | 0.0 | 0.0 | 0.00 | 0.00 | 0.00 | 48 | 1016.7 |
| 20260503234314 | 18 | 138 | 0.0 | 0.0 | 0.00 | 0.00 | 0.00 | 46 | 1016.7 |
| 20260503233811 | 18 | 142 | 0.0 | 0.0 | 0.00 | 0.00 | 0.00 | 46 | 1016.5 |
| 20260503233307 | 18 | 153 | 1.6 | 3.2 | 0.00 | 0.00 | 0.00 | 48 | 1016.6 |
| 20260503232804 | 19 | 138 | 0.0 | 0.0 | 0.00 | 0.00 | 0.00 | 43 | 1016.7 |
| 20260503232301 | 20 | 133 | 0.0 | 0.0 | 0.00 | 0.00 | 0.00 | 40 | 1016.8 |
| 20260503231759 | 20 | 132 | 0.0 | 0.0 | 0.00 | 0.00 | 0.00 | 41 | 1016.7 |
| 20260503231256 | 20 | 139 | 0.0 | 0.0 | 0.00 | 0.00 | 0.00 | 42 | 1016.9 |
| 20260503230756 | 20 | 138 | 0.0 | 0.0 | 0.00 | 0.00 | 0.00 | 41 | 1016.9 |
| 20260503230254 | 21 | 140 | 1.6 | 1.6 | 0.00 | 0.00 | 0.00 | 40 | 1017.0 |
| 20260503225752 | 21 | 144 | 0.0 | 0.0 | 0.00 | 0.00 | 0.00 | 40 | 1016.7 |
| 20260503225252 | 20 | 136 | 0.0 | 0.0 | 0.00 | 0.00 | 0.00 | 37 | 1016.9 |
| 20260503224748 | 21 | 138 | 1.6 | 3.2 | 0.00 | 0.00 | 0.00 | 37 | 1016.9 |
| 20260503224246 | 21 | 74 | 1.6 | 1.6 | 0.00 | 0.00 | 0.00 | 37 | 1017.0 |
| 20260503223744 | 21 | 131 | 1.6 | 1.6 | 0.00 | 0.00 | 0.00 | 39 | 1017.1 |
| 20260503223241 | 21 | 15 | 3.2 | 4.8 | 0.00 | 0.00 | 0.00 | 37 | 1016.9 |
| 20260503222737 | 21 | 120 | 1.6 | 1.6 | 0.00 | 0.00 | 0.00 | 36 | 1017.0 |
| 20260503222235 | 21 | 55 | 1.6 | 1.6 | 0.00 | 0.00 | 0.00 | 37 | 1017.1 |
| 20260503221733 | 21 | 143 | 0.0 | 1.6 | 0.00 | 0.00 | 0.00 | 36 | 1017.0 |
| 20260503221231 | 21 | 154 | 0.0 | 0.0 | 0.00 | 0.00 | 0.00 | 37 | 1017.2 |
| 20260503220727 | 21 | 147 | 1.6 | 1.6 | 0.00 | 0.00 | 0.00 | 39 | 1017.1 |
| 20260503220224 | 21 | 143 | 1.6 | 3.2 | 0.00 | 0.00 | 0.00 | 37 | 1017.3 |
| 20260503215721 | 21 | 165 | 1.6 | 1.6 | 0.00 | 0.00 | 0.00 | 36 | 1017.3 |
| 20260503215218 | 21 | 99 | 0.0 | 1.6 | 0.00 | 0.00 | 0.00 | 36 | 1017.3 |
| 20260503214716 | 21 | 104 | 0.0 | 1.6 | 0.00 | 0.00 | 0.00 | 36 | 1017.3 |
| 20260503214212 | 21 | 139 | 1.6 | 3.2 | 0.00 | 0.00 | 0.00 | 35 | 1017.5 |
| 20260503213711 | 21 | 151 | 1.6 | 3.2 | 0.00 | 0.00 | 0.00 | 36 | 1017.7 |
| 20260503213208 | 21 | 85 | 3.2 | 4.8 | 0.00 | 0.00 | 0.00 | 34 | 1017.7 |
| 20260503212704 | 21 | 183 | 4.8 | 6.4 | 0.00 | 0.00 | 0.00 | 35 | 1017.6 |
| 20260503212202 | 21 | 151 | 0.0 | 1.6 | 0.00 | 0.00 | 0.00 | 37 | 1017.7 |
| 20260503211700 | 21 | 155 | 0.0 | 1.6 | 0.00 | 0.00 | 0.00 | 35 | 1017.9 |
| 20260503211155 | 21 | 150 | 1.6 | 1.6 | 0.00 | 0.00 | 0.00 | 36 | 1017.9 |
| 20260503210651 | 21 | 310 | 1.6 | 3.2 | 0.00 | 0.00 | 0.00 | 34 | 1017.9 |
| 20260503210148 | 21 | 150 | 0.0 | 1.6 | 0.00 | 0.00 | 0.00 | 39 | 1017.9 |
| 20260503205644 | 21 | 195 | 3.2 | 3.2 | 0.00 | 0.00 | 0.00 | 38 | 1017.9 |
| 20260503205140 | 22 | 142 | 1.6 | 1.6 | 0.00 | 0.00 | 0.00 | 39 | 1018.1 |
| 20260503204637 | 21 | 191 | 3.2 | 4.8 | 0.00 | 0.00 | 0.00 | 37 | 1018.1 |
| 20260503204135 | 21 | 177 | 1.6 | 1.6 | 0.00 | 0.00 | 0.00 | 38 | 1018.3 |
| 20260503203631 | 21 | 68 | 4.8 | 6.4 | 0.00 | 0.00 | 0.00 | 38 | 1018.3 |
| 20260503203129 | 22 | 62 | 1.6 | 3.2 | 0.00 | 0.00 | 0.00 | 38 | 1018.2 |
| 20260503202626 | 22 | 148 | 0.0 | 0.0 | 0.00 | 0.00 | 0.00 | 37 | 1018.3 |
| 20260503202124 | 21 | 126 | 0.0 | 1.6 | 0.00 | 0.00 | 0.00 | 41 | 1018.4 |
| 20260503201622 | 21 | 158 | 1.6 | 1.6 | 0.00 | 0.00 | 0.00 | 38 | 1018.6 |
| 20260503201119 | 21 | 16 | 3.2 | 4.8 | 0.00 | 0.00 | 0.00 | 38 | 1018.6 |
| 20260503200615 | 21 | 118 | 3.2 | 3.2 | 0.00 | 0.00 | 0.00 | 38 | 1018.7 |
| 20260503200112 | 21 | 212 | 4.8 | 6.4 | 0.00 | 0.00 | 0.00 | 40 | 1019.0 |
| 20260503195609 | 21 | 97 | 6.4 | 6.4 | 0.00 | 0.00 | 0.00 | 38 | 1019.1 |
| 20260503195106 | 21 | 136 | 1.6 | 1.6 | 0.00 | 0.00 | 0.00 | 39 | 1019.1 |
| 20260503194604 | 21 | 156 | 0.0 | 0.0 | 0.00 | 0.00 | 0.00 | 39 | 1019.2 |
| 20260503194103 | 21 | 175 | 1.6 | 1.6 | 0.00 | 0.00 | 0.00 | 37 | 1019.2 |
| 20260503193600 | 21 | 186 | 3.2 | 3.2 | 0.00 | 0.00 | 0.00 | 37 | 1019.5 |
| 20260503193055 | 20 | 157 | 1.6 | 3.2 | 0.00 | 0.00 | 0.00 | 38 | 1019.6 |
| 20260503192552 | 21 | 175 | 4.8 | 6.4 | 0.00 | 0.00 | 0.00 | 36 | 1019.6 |